Regional Weather Roundup
Issued by NWS Memphis, TN

Home | Current Version | Previous Version | Text Only | Print | Product List | Glossary On
Versions: 1 2 3 4 5 6 7 8 9 10 11 12 13 14 15 16 17 18 19 20 21 22 23 24 25 26 27 28 29 30 31 32 33 34 35 36 37 38 39 40 41 42 43 44 45 46 47 48 49 50
000
ASUS44 KMEG 280300
RWRMEG
MEMPHIS CWA HOURLY WEATHER ROUNDUP
NATIONAL WEATHER SERVICE MEMPHIS TN
1000 PM CDT TUE JUN 27 2017

...WEST TENNESSEE...

CITY           SKY/WX    TMP DP  RH WIND       PRES   REMARKS
MEMPHIS INTL   PTCLDY    78  64  61 E7        30.05R
NWS MEMPHIS      N/A     73 N/A N/A MISG        N/A
JACKSON        CLEAR     68  66  93 CALM      30.06R


...EASTERN ARKANSAS...

CITY           SKY/WX    TMP DP  RH WIND       PRES   REMARKS
JONESBORO      CLEAR     71  68  90 E3        30.04R
WEST MEMPHIS   PTCLDY    74  67  78 NE5       30.03R
BATESVILLE     CLEAR     73  64  73 SE3       30.05R
WALNUT RIDGE   CLEAR     72  64  78 E6        30.04R
BLYTHEVILLE    CLEAR     73  67  81 E5        30.05R
SEARCY         PTCLDY    71  68  90 CALM      30.05R
STUTTGART      PTCLDY    77  57  50 E5        30.04R
PINE BLUFF     CLEAR     73  70  90 CALM      30.03R
MONTICELLO     PTCLDY    71  67  87 CALM      30.03R


...NORTH MISSISSIPPI...

CITY           SKY/WX    TMP DP  RH WIND       PRES   REMARKS
TUPELO         PTCLDY    73  64  73 CALM      30.05R
TUNICA           N/A     72  68  88 CALM      30.05R
CLARKSDALE       N/A     75  70  83 CALM      30.04R
GREENWOOD      CLEAR     72  68  87 E5        30.03R
COLUMBUS       CLEAR     72  67  85 CALM      30.04R
STARKVILLE     PTCLDY    70  66  88 CALM      30.06R
GOLDEN TRIANGL CLEAR     73  64  73 NE3       30.01S


...SOUTHEAST MISSOURI...

CITY           SKY/WX    TMP DP  RH WIND       PRES   REMARKS
KENNETT        CLEAR     72  68  88 CALM      30.04R
MALDEN         CLEAR     72  63  73 CALM      30.06S
WEST PLAINS    CLEAR     70  63  78 SE5       30.06S
POPLAR BLUFF   CLEAR     68  66  93 CALM      30.05R
CAPE GIRARDEAU PTCLDY    66  59  78 SE6       30.05R


...NORTHWEST ALABAMA...

CITY           SKY/WX    TMP DP  RH WIND       PRES   REMARKS
MUSCLE SHOALS  CLEAR     68  62  81 CALM      30.09R


...MIDDLE TENNESSEE...

CITY           SKY/WX    TMP DP  RH WIND       PRES   REMARKS
NASHVILLE      CLEAR     72  56  57 NE5       30.10R
CLARKSVILLE    CLEAR     65  55  70 CALM      30.09R


...WESTERN KENTUCKY...

CITY           SKY/WX    TMP DP  RH WIND       PRES   REMARKS
PADUCAH        CLEAR     67  59  75 CALM      30.07R
FORT CAMPBELL  CLEAR     67  55  64 CALM      30.09R


...CENTRAL ARKANSAS...

CITY           SKY/WX    TMP DP  RH WIND       PRES   REMARKS
LITTLE ROCK    PTCLDY    73  67  81 SE5       30.03R


SKY/WX REPORTED AS FAIR MEANS FEW OR NO CLOUDS BELOW
12 THOUSAND FEET.




USA.gov is the U.S. government's official web portal to all federal, state and local government web resources and services.